St. Joseph, KS

2:40 AM CST on December 14, 2019 (GMT -0600)
Rosecrans Memorial

Weather History for KSTJ - October, 2019

Change the Weather History Date:

Thursday, October 31, 2019

  Actual Average Record
Temperature  
Mean Temperature 31 °F 49 °F  
Max Temperature 42 °F 61 °F 88 °F (1950)
Min Temperature 20 °F 37 °F 20 °F (2019)
Degree Days  
Heating Degree Days 34 16  
Month to date heating degree days 444 339  
Since 1 July heating degree days 449 419  
Cooling Degree Days 0 0  
Month to date cooling degree days 17 21  
Year to date cooling degree days 1466 1220  
Moisture  
Dew Point 21 °F    
Average Humidity 65    
Maximum Humidity 88    
Minimum Humidity 41    
Precipitation  
Precipitation 0.00 in 0.07 in 1.60 in (1974)
Month to date precipitation 3.29 2.81  
Year to date precipitation 36.89 32.53  
Sea Level Pressure  
Sea Level Pressure 30.25 in    
Wind  
Wind Speed 8 mph (West)    
Max Wind Speed 16 mph    
Max Gust Speed 22 mph    
Visibility 9 miles    
Events      
T = Trace of Precipitation, MM = Missing Value Source: NWS Daily Summary

Daily Weather History Graph

Daily Weather History Graph

Search for Another Location

Airport or City:

Astronomy

Oct. 31, 2019 Rise Set
Actual Time 7:46 AM CDT 6:18 PM CDT
Civil Twilight 7:19 AM CDT 6:46 PM CDT
Nautical Twilight 6:47 AM CDT 7:18 PM CDT
Astronomical Twilight 6:15 AM CDT 7:50 PM CDT
Moon 11:35 AM CDT (10/31) 9:16 PM CDT (10/31)
Length of Visible Light 11h 27m
Length of Day
10h 32m
Waxing Crescent, 16% of the Moon is Illuminated
Oct 31
Waxing Crescent
Nov 4
First Quarter
Nov 12
Full
Nov 19
Last Quarter
Nov 26
New

Hourly Weather History & Observations

Time (CDT) Temp. Windchill Dew Point Humidity Pressure Visibility Wind Dir Wind Speed Gust Speed Precip Events Conditions
12:06 AM 28.9 °F 18.6 °F 26.1 °F 89% 30.24 in 1.2 mi NNW 12.7 mph - N/A   Overcast
12:23 AM 28.9 °F 19.8 °F 26.1 °F 89% 30.24 in 2.0 mi NNW 10.4 mph - N/A   Overcast
12:36 AM 28.9 °F 17.7 °F 25.0 °F 85% 30.24 in 4.0 mi NNW 15.0 mph - N/A   Overcast
12:53 AM 28.9 °F 18.2 °F 25.0 °F 85% 30.26 in 5.0 mi NNW 13.8 mph - N/A   Overcast
1:53 AM 28.0 °F 20.8 °F 24.1 °F 85% 30.26 in 10.0 mi NW 6.9 mph - N/A   Overcast
2:53 AM 26.1 °F 19.4 °F 23.0 °F 88% 30.25 in 10.0 mi West 5.8 mph - N/A   Overcast
3:53 AM 28.0 °F 19.3 °F 19.9 °F 72% 30.24 in 10.0 mi NW 9.2 mph - N/A   Overcast
4:53 AM 21.9 °F 14.5 °F 17.1 °F 82% 30.24 in 10.0 mi West 5.8 mph - N/A   Clear
5:53 AM 25.0 °F 15.5 °F 19.0 °F 78% 30.24 in 10.0 mi WNW 9.2 mph - N/A   Clear
6:53 AM 23.0 °F 13.1 °F 18.0 °F 81% 30.25 in 10.0 mi WNW 9.2 mph - N/A   Clear
7:53 AM 21.0 °F 13.4 °F 16.0 °F 81% 30.27 in 10.0 mi WNW 5.8 mph - N/A   Clear
8:53 AM 23.0 °F 14.7 °F 17.1 °F 78% 30.27 in 10.0 mi WNW 6.9 mph - N/A   Clear
9:53 AM 27.0 °F - 19.0 °F 72% 30.29 in 10.0 mi North - - N/A   Clear
10:53 AM 30.0 °F 20.5 °F 18.0 °F 61% 30.29 in 10.0 mi WNW 11.5 mph - N/A   Clear
11:53 AM 33.1 °F 24.4 °F 19.0 °F 56% 30.30 in 10.0 mi WNW 11.5 mph - N/A   Clear
12:53 PM 36.0 °F 28.0 °F 21.0 °F 55% 30.27 in 10.0 mi West 11.5 mph - N/A   Clear
1:53 PM 37.9 °F 31.5 °F 21.9 °F 53% 30.26 in 10.0 mi West 9.2 mph - N/A   Clear
2:53 PM 39.9 °F 34.5 °F 21.0 °F 47% 30.25 in 10.0 mi WSW 8.1 mph 17.3 mph N/A   Clear
3:53 PM 41.0 °F 33.9 °F 19.0 °F 41% 30.24 in 7.0 mi West 12.7 mph - N/A   Clear
4:53 PM 41.0 °F 34.7 °F 19.0 °F 41% 30.24 in 10.0 mi West 10.4 mph - N/A   Clear
6:53 PM 36.0 °F 32.1 °F 21.0 °F 55% 30.25 in 10.0 mi SSW 4.6 mph - N/A   Clear
7:53 PM 33.1 °F 26.9 °F 23.0 °F 66% 30.25 in 10.0 mi South 6.9 mph - N/A   Clear
8:53 PM 30.0 °F 23.2 °F 23.0 °F 75% 30.25 in 10.0 mi South 6.9 mph - N/A   Clear
9:53 PM 30.0 °F 24.1 °F 23.0 °F 75% 30.24 in 10.0 mi South 5.8 mph - N/A   Clear
10:53 PM 30.0 °F 25.2 °F 23.0 °F 75% 30.23 in 10.0 mi SSE 4.6 mph - N/A   Clear
11:53 PM 30.0 °F 25.2 °F 21.9 °F 72% 30.21 in 10.0 mi SSE 4.6 mph - N/A   Clear